Weather in Agra

India     27°11′23″N   77°59′40″E
temp.,
°C
wind,
m/s
gust,
m/s
humid.,
%
clouds,
%
prec.,
mm/h
press.,
hPa
HPBL,
m
13 may, thu
thu1323:30+29sw3544100 1.9 1001344
02:30+29ese2343100 0.0 1001265
05:30+28e3447100 0.3 1002253
08:30+30s4439100 0.1 1004528
11:30+35wsw332442 0.1 10031782
14:30+39sw241742 0.0 10003828
17:30+38w151796 0.1 9973058
20:30+26e686188 0.5 1002401
14 may, fri
fri1423:30+29ene344599 0.5 1003387
02:30+27se46500 0.0 1001427
05:30+27ese24510 0.0 1001197
08:30+30ene34410 0.0 1004868
11:30+35ese23303 0.0 10031733
14:30+38ene02221 0.0 10002106
17:30+39ne33170 0.0 9982446
20:30+33s7931100 0.4 1002549
15 may, sat
sat1523:30+34ese352891 0.6 1000177
02:30+33se232741 0.0 1000104
05:30+31sse22316 0.0 100278
08:30+36ese23242 0.0 1003629
11:30+40se331735 0.0 10022408
14:30+42ne231275 0.0 9994452
17:30+39nne76161 0.0 998958
20:30+37ene471895 0.0 1000348
16 may, sun
sun1623:30+34ene362556 0.0 1001213
02:30+33ne372657 0.0 1000174
05:30+32ene3728100 0.0 1002173
08:30+36ene452050 0.0 1003504
11:30+41ene441451 0.0 10021898
14:30+43ene331196 0.0 9994606
17:30+43nne44100 0.0 9984236
20:30+39nne4815100 0.0 1000270
17 may, mon
mon1723:30+37nne3616100 0.0 1001149
02:30+35e111955 0.0 100124
05:30+35ne3518100 0.0 1001121
08:30+37ne341599 0.0 1003329
11:30+42ne3411100 0.0 10021600
14:30+43ne2312100 0.0 9994464
17:30+42nne3412100 0.0 9983824
20:30+38ssw5720100 0.0 1002726